Retour au catalogue

THOR ABLESTAR DEB

ActifLEO
NORAD 136·DEBRIS·🇺🇸 United States

Lancé Jun 29, 1961 depuis Cape Canaveral Space Force Station

Loading…

Prochains Passages (prochaines 24 heures)

TLE

FraisSource: Space-Track

Époque: Sep 9, 2026, 19:23 UTC

1 00136U 61015W   26252.80778013  .00000829  00000-0  27179-3 0  9992
2 00136  67.5276  62.6791 0047143 312.3578  47.3545 14.42315942368969

Suivez THOR ABLESTAR DEB en temps réel avec AllMySat

Download on the App Store